This is the latest recevied weather packets stored in our database for station/object G4KVI. If no packets are shown the sender has not sent any weather packets the latest 10 day(s).
| Time | Temp. | Humidity | Pressure | Rain* | Wind** | Luminosity | Snow |
|---|---|---|---|---|---|---|---|
| 1788508804 | 16.67° C | 90% | 1015.4 hPa | 0 mm | - | 78 W/m² | - |
| 1788508504 | 16.67° C | 90% | 1015.3 hPa | 0 mm | - | 66 W/m² | - |
| 1788508204 | 16.67° C | 90% | 1015.5 hPa | 0 mm | - | 58 W/m² | - |
| 1788507904 | 16.67° C | 90% | 1015.4 hPa | 0 mm | - | 70 W/m² | - |
| 1788507604 | 16.67° C | 90% | 1015.2 hPa | 0 mm | - | 68 W/m² | - |
| 1788507304 | 16.67° C | 90% | 1015.2 hPa | 0.25 mm | - | 94 W/m² | - |
| 1788507004 | 16.67° C | 90% | 1015.2 hPa | 0.25 mm | - | 100 W/m² | - |
| 1788506704 | 16.67° C | 90% | 1015.2 hPa | 0.25 mm | - | 73 W/m² | - |
| 1788506404 | 16.67° C | 91% | 1015.1 hPa | 0.25 mm | - | 74 W/m² | - |
| 1788506104 | 16.67° C | 91% | 1015.2 hPa | 0.25 mm | - | 52 W/m² | - |
| 1788505804 | 16.67° C | 92% | 1015.2 hPa | 0.25 mm | - | 56 W/m² | - |
| 1788505504 | 16.67° C | 92% | 1014.8 hPa | 0.51 mm | - | 55 W/m² | - |
| 1788505204 | 16.67° C | 92% | 1014.8 hPa | 0.51 mm | - | 44 W/m² | - |
| 1788504904 | 16.67° C | 93% | 1014.8 hPa | 0.76 mm | - | 50 W/m² | - |
| 1788504604 | 16.67° C | 93% | 1014.7 hPa | 0.76 mm | - | 63 W/m² | - |
| 1788504304 | 16.67° C | 93% | 1014.6 hPa | 0.76 mm | - | 46 W/m² | - |
| 1788504004 | 16.67° C | 93% | 1014.8 hPa | 0.76 mm | - | 34 W/m² | - |
| 1788503704 | 16.67° C | 93% | 1014.5 hPa | 0.76 mm | - | 29 W/m² | - |
| 1788503404 | 16.67° C | 93% | 1014.6 hPa | 1.78 mm | - | 31 W/m² | - |
| 1788503104 | 17.22° C | 93% | 1014.5 hPa | 1.78 mm | - | 23 W/m² | - |
| 1788502804 | 17.22° C | 93% | 1014.3 hPa | 1.78 mm | - | 14 W/m² | - |
| 1788502504 | 17.22° C | 93% | 1014.4 hPa | 1.78 mm | - | 7 W/m² | - |
| 1788502204 | 17.22° C | 93% | 1014.2 hPa | 1.78 mm | - | 8 W/m² | - |
| 1788501904 | 17.22° C | 92% | 1014.1 hPa | 1.52 mm | - | 6 W/m² | - |
| 1788501604 | 17.22° C | 92% | 1014.2 hPa | 1.52 mm | - | 4 W/m² | - |
* Rain latest hour (hover to see other rain measurements)
** Current wind speed in m/s (hover to see current wind gust speed)